Time,TemperatureF,DewpointF,PressureIn,WindDirection,WindDirectionDegrees,WindSpeedMPH,WindSpeedGustMPH,Humidity,HourlyPrecipIn,Conditions,Clouds,dailyrainin,SolarRadiationWatts/m^2,SoftwareType,DateUTC
2013-04-10 00:03:00,66.0,62.0,-100.00,SE,126,1.0,5.0,87,0.00,,,0.00,0.000000,,2013-04-10 04:03:00,
2013-04-10 00:23:00,64.0,62.0,-100.00,ESE,105,1.0,5.0,92,0.00,,,0.00,0.000000,,2013-04-10 04:23:00,
2013-04-10 00:33:00,64.0,62.0,-100.00,ESE,105,1.0,5.0,92,0.00,,,0.00,0.000000,,2013-04-10 04:33:00,
2013-04-10 00:43:00,64.0,62.0,-100.00,ESE,105,1.0,5.0,92,0.00,,,0.00,0.000000,,2013-04-10 04:43:00,
2013-04-10 00:53:00,64.0,62.0,-100.00,ESE,105,1.0,5.0,92,0.00,,,0.00,0.000000,,2013-04-10 04:53:00,
2013-04-10 01:03:00,64.0,62.0,-100.00,ESE,105,1.0,5.0,92,0.00,,,0.00,0.000000,,2013-04-10 05:03:00,
2013-04-10 01:23:00,62.0,60.0,-100.00,East,100,0.0,1.0,94,0.00,,,0.00,0.000000,,2013-04-10 05:23:00,
2013-04-10 01:33:00,62.0,60.0,-100.00,East,100,0.0,1.0,94,0.00,,,0.00,0.000000,,2013-04-10 05:33:00,
2013-04-10 01:43:00,62.0,60.0,-100.00,East,100,0.0,1.0,94,0.00,,,0.00,0.000000,,2013-04-10 05:43:00,
2013-04-10 01:53:00,62.0,60.0,-100.00,East,100,0.0,1.0,94,0.00,,,0.00,0.000000,,2013-04-10 05:53:00,
2013-04-10 02:03:00,62.0,60.0,-100.00,East,100,0.0,1.0,94,0.00,,,0.00,0.000000,,2013-04-10 06:03:00,
2013-04-10 02:22:00,62.0,60.0,-100.00,East,100,0.0,0.0,94,0.00,,,0.00,0.000000,,2013-04-10 06:22:00,
2013-04-10 02:32:00,62.0,60.0,-100.00,East,100,0.0,0.0,94,0.00,,,0.00,0.000000,,2013-04-10 06:32:00,
2013-04-10 02:42:00,62.0,60.0,-100.00,East,100,0.0,0.0,94,0.00,,,0.00,0.000000,,2013-04-10 06:42:00,
2013-04-10 02:52:00,62.0,60.0,-100.00,East,100,0.0,0.0,94,0.00,,,0.00,0.000000,,2013-04-10 06:52:00,
2013-04-10 03:02:00,62.0,60.0,-100.00,East,100,0.0,0.0,94,0.00,,,0.00,0.000000,,2013-04-10 07:02:00,
2013-04-10 03:32:00,61.0,60.0,-100.00,ESE,113,1.0,4.0,95,0.00,,,0.00,0.000000,,2013-04-10 07:32:00,
2013-04-10 03:43:00,61.0,60.0,-100.00,ESE,113,1.0,4.0,95,0.00,,,0.00,0.000000,,2013-04-10 07:43:00,
2013-04-10 03:52:00,61.0,60.0,-100.00,ESE,113,1.0,4.0,95,0.00,,,0.00,0.000000,,2013-04-10 07:52:00,
2013-04-10 04:02:00,61.0,60.0,-100.00,ESE,113,1.0,4.0,95,0.00,,,0.00,0.000000,,2013-04-10 08:02:00,
2013-04-10 04:32:00,59.0,58.0,-100.00,NE,54,0.0,0.0,95,0.00,,,0.00,0.000000,,2013-04-10 08:32:00,
2013-04-10 04:43:00,59.0,58.0,-100.00,NE,54,0.0,0.0,95,0.00,,,0.00,0.000000,,2013-04-10 08:43:00,
2013-04-10 04:52:00,59.0,58.0,-100.00,NE,54,0.0,0.0,95,0.00,,,0.00,0.000000,,2013-04-10 08:52:00,
2013-04-10 05:02:00,59.0,58.0,-100.00,NE,54,0.0,0.0,95,0.00,,,0.00,0.000000,,2013-04-10 09:02:00,
2013-04-10 05:32:00,58.0,57.0,-100.00,NW,322,0.0,0.0,95,0.00,,,0.00,0.000000,,2013-04-10 09:32:00,
2013-04-10 05:43:00,58.0,57.0,-100.00,NW,322,0.0,0.0,95,0.00,,,0.00,0.000000,,2013-04-10 09:43:00,
2013-04-10 05:53:00,58.0,57.0,-100.00,NW,322,0.0,0.0,95,0.00,,,0.00,0.000000,,2013-04-10 09:53:00,
2013-04-10 06:03:00,58.0,57.0,-100.00,NW,322,0.0,0.0,95,0.00,,,0.00,0.000000,,2013-04-10 10:03:00,
2013-04-10 06:33:00,56.0,55.0,-100.00,NW,313,0.0,0.0,95,0.00,,,0.00,0.000000,,2013-04-10 10:33:00,
2013-04-10 06:43:00,56.0,55.0,-100.00,NW,313,0.0,0.0,95,0.00,,,0.00,0.000000,,2013-04-10 10:43:00,
2013-04-10 06:53:00,56.0,55.0,-100.00,NW,313,0.0,0.0,95,0.00,,,0.00,0.000000,,2013-04-10 10:53:00,
2013-04-10 07:02:00,56.0,55.0,-100.00,NW,313,0.0,0.0,95,0.00,,,0.00,0.000000,,2013-04-10 11:02:00,
2013-04-10 09:33:00,70.0,68.0,-100.00,NE,51,1.0,2.0,94,-99.99,,,0.00,241.000000,,2013-04-10 13:33:00,
2013-04-10 09:43:00,70.0,68.0,-100.00,NE,51,1.0,2.0,94,-99.99,,,0.00,241.000000,,2013-04-10 13:43:00,
2013-04-10 09:53:00,70.0,68.0,-100.00,NE,51,1.0,2.0,94,-99.99,,,0.00,241.000000,,2013-04-10 13:53:00,
2013-04-10 10:02:00,70.0,68.0,-100.00,NE,51,1.0,2.0,94,-99.99,,,0.00,241.000000,,2013-04-10 14:02:00,
2013-04-10 10:22:00,75.0,64.0,-100.00,SE,125,4.0,8.0,69,0.00,,,0.00,478.000000,,2013-04-10 14:22:00,
2013-04-10 10:33:00,75.0,64.0,-100.00,SE,125,4.0,8.0,69,0.00,,,0.00,478.000000,,2013-04-10 14:33:00,
2013-04-10 10:42:00,75.0,64.0,-100.00,SE,125,4.0,8.0,69,0.00,,,0.00,478.000000,,2013-04-10 14:42:00,
2013-04-10 10:52:00,75.0,64.0,-100.00,SE,125,4.0,8.0,69,0.00,,,0.00,478.000000,,2013-04-10 14:52:00,
2013-04-10 11:03:00,75.0,64.0,-100.00,SE,125,4.0,8.0,69,0.00,,,0.00,478.000000,,2013-04-10 15:03:00,
2013-04-10 12:23:00,79.0,61.0,-100.00,ESE,118,4.0,10.0,55,-99.99,,,0.00,840.000000,,2013-04-10 16:23:00,
2013-04-10 12:33:00,79.0,61.0,-100.00,ESE,118,4.0,10.0,55,-99.99,,,0.00,840.000000,,2013-04-10 16:33:00,
2013-04-10 12:43:00,79.0,61.0,-100.00,ESE,118,4.0,10.0,55,-99.99,,,0.00,840.000000,,2013-04-10 16:43:00,
2013-04-10 12:53:00,79.0,61.0,-100.00,ESE,118,4.0,10.0,55,-99.99,,,0.00,840.000000,,2013-04-10 16:53:00,
2013-04-10 13:03:00,79.0,61.0,-100.00,ESE,118,4.0,10.0,55,-99.99,,,0.00,840.000000,,2013-04-10 17:03:00,
2013-04-10 13:34:00,80.0,62.0,-100.00,ESE,119,5.0,12.0,55,0.00,,,0.00,990.000000,,2013-04-10 17:34:00,
2013-04-10 13:43:00,80.0,62.0,-100.00,ESE,119,5.0,12.0,55,0.00,,,0.00,990.000000,,2013-04-10 17:43:00,
2013-04-10 13:53:00,80.0,62.0,-100.00,ESE,119,5.0,12.0,55,0.00,,,0.00,990.000000,,2013-04-10 17:53:00,
2013-04-10 14:03:00,80.0,62.0,-100.00,ESE,119,5.0,12.0,55,0.00,,,0.00,990.000000,,2013-04-10 18:03:00,
2013-04-10 14:23:00,81.0,63.0,-100.00,SE,140,5.0,16.0,55,0.00,,,0.00,1020.000000,,2013-04-10 18:23:00,
2013-04-10 14:33:00,81.0,63.0,-100.00,SE,140,5.0,16.0,55,0.00,,,0.00,1020.000000,,2013-04-10 18:33:00,
2013-04-10 14:43:00,81.0,63.0,-100.00,SE,140,5.0,16.0,55,0.00,,,0.00,1020.000000,,2013-04-10 18:43:00,
2013-04-10 14:53:00,81.0,63.0,-100.00,SE,140,5.0,16.0,55,0.00,,,0.00,1020.000000,,2013-04-10 18:53:00,
2013-04-10 15:03:00,81.0,63.0,-100.00,SE,140,5.0,16.0,55,0.00,,,0.00,1020.000000,,2013-04-10 19:03:00,
2013-04-10 15:22:00,80.0,63.0,-100.00,ESE,110,7.0,13.0,56,0.00,,,0.00,970.000000,,2013-04-10 19:22:00,
2013-04-10 15:33:00,80.0,63.0,-100.00,ESE,110,7.0,13.0,56,0.00,,,0.00,970.000000,,2013-04-10 19:33:00,
2013-04-10 15:42:00,80.0,63.0,-100.00,ESE,110,7.0,13.0,56,0.00,,,0.00,970.000000,,2013-04-10 19:42:00,
2013-04-10 15:53:00,80.0,63.0,-100.00,ESE,110,7.0,13.0,56,0.00,,,0.00,970.000000,,2013-04-10 19:53:00,
2013-04-10 16:03:00,80.0,63.0,-100.00,ESE,110,7.0,13.0,56,0.00,,,0.00,970.000000,,2013-04-10 20:03:00,
2013-04-10 16:33:00,80.0,63.0,-100.00,SE,129,6.0,13.0,57,0.00,,,0.00,854.000000,,2013-04-10 20:33:00,
2013-04-10 16:43:00,80.0,63.0,-100.00,SE,129,6.0,13.0,57,0.00,,,0.00,854.000000,,2013-04-10 20:43:00,
2013-04-10 16:53:00,80.0,63.0,-100.00,SE,129,6.0,13.0,57,0.00,,,0.00,854.000000,,2013-04-10 20:53:00,
2013-04-10 17:03:00,80.0,63.0,-100.00,SE,129,6.0,13.0,57,0.00,,,0.00,854.000000,,2013-04-10 21:03:00,
2013-04-10 17:33:00,79.0,63.0,-100.00,SE,125,7.0,15.0,58,0.00,,,0.00,693.000000,,2013-04-10 21:33:00,
2013-04-10 17:43:00,79.0,63.0,-100.00,SE,125,7.0,15.0,58,0.00,,,0.00,693.000000,,2013-04-10 21:43:00,
2013-04-10 17:53:00,79.0,63.0,-100.00,SE,125,7.0,15.0,58,0.00,,,0.00,693.000000,,2013-04-10 21:53:00,
2013-04-10 18:03:00,79.0,63.0,-100.00,SE,125,7.0,15.0,58,0.00,,,0.00,693.000000,,2013-04-10 22:03:00,
2013-04-10 18:34:00,77.0,63.0,-100.00,SE,131,6.0,12.0,61,0.00,,,0.00,489.000000,,2013-04-10 22:34:00,
2013-04-10 18:43:00,77.0,63.0,-100.00,SE,131,6.0,12.0,61,0.00,,,0.00,489.000000,,2013-04-10 22:43:00,
2013-04-10 18:53:00,77.0,63.0,-100.00,SE,131,6.0,12.0,61,0.00,,,0.00,489.000000,,2013-04-10 22:53:00,
2013-04-10 19:03:00,77.0,63.0,-100.00,SE,131,6.0,12.0,61,0.00,,,0.00,489.000000,,2013-04-10 23:03:00,
2013-04-10 19:33:00,75.0,62.0,-100.00,ESE,121,5.0,12.0,64,0.00,,,0.00,246.000000,,2013-04-10 23:33:00,
2013-04-10 19:43:00,75.0,62.0,-100.00,ESE,121,5.0,12.0,64,0.00,,,0.00,246.000000,,2013-04-10 23:43:00,
2013-04-10 19:53:00,75.0,62.0,-100.00,ESE,121,5.0,12.0,64,0.00,,,0.00,246.000000,,2013-04-10 23:53:00,
2013-04-10 20:02:00,75.0,62.0,-100.00,ESE,121,5.0,12.0,64,0.00,,,0.00,246.000000,,2013-04-11 00:02:00,
2013-04-10 20:32:00,71.0,63.0,-100.00,SE,139,1.0,9.0,76,0.00,,,0.00,36.000000,,2013-04-11 00:32:00,
2013-04-10 20:43:00,71.0,63.0,-100.00,SE,139,1.0,9.0,76,0.00,,,0.00,36.000000,,2013-04-11 00:43:00,
2013-04-10 20:53:00,71.0,63.0,-100.00,SE,139,1.0,9.0,76,0.00,,,0.00,36.000000,,2013-04-11 00:53:00,
2013-04-10 21:02:00,71.0,63.0,-100.00,SE,139,1.0,9.0,76,0.00,,,0.00,36.000000,,2013-04-11 01:02:00,
2013-04-10 21:32:00,67.0,63.0,-100.00,East,99,0.0,4.0,87,0.00,,,0.00,0.000000,,2013-04-11 01:32:00,
2013-04-10 21:42:00,67.0,63.0,-100.00,East,99,0.0,4.0,87,0.00,,,0.00,0.000000,,2013-04-11 01:42:00,
2013-04-10 21:52:00,67.0,63.0,-100.00,East,99,0.0,4.0,87,0.00,,,0.00,0.000000,,2013-04-11 01:52:00,
2013-04-10 22:03:00,67.0,63.0,-100.00,East,99,0.0,4.0,87,0.00,,,0.00,0.000000,,2013-04-11 02:03:00,
2013-04-10 22:32:00,66.0,63.0,-100.00,East,95,1.0,3.0,91,0.00,,,0.00,0.000000,,2013-04-11 02:32:00,
2013-04-10 22:42:00,66.0,63.0,-100.00,East,95,1.0,3.0,91,0.00,,,0.00,0.000000,,2013-04-11 02:42:00,
2013-04-10 22:53:00,66.0,63.0,-100.00,East,95,1.0,3.0,91,0.00,,,0.00,0.000000,,2013-04-11 02:53:00,
2013-04-10 23:02:00,66.0,63.0,-100.00,East,95,1.0,3.0,91,0.00,,,0.00,0.000000,,2013-04-11 03:02:00,
2013-04-10 23:33:00,66.0,64.0,-100.00,East,100,2.0,4.0,93,0.00,,,0.00,0.000000,,2013-04-11 03:33:00,
2013-04-10 23:43:00,66.0,64.0,-100.00,East,100,2.0,4.0,93,0.00,,,0.00,0.000000,,2013-04-11 03:43:00,
2013-04-10 23:54:00,66.0,64.0,-100.00,East,100,2.0,4.0,93,0.00,,,0.00,0.000000,,2013-04-11 03:54:00,